Location: ?????? ??????
(44.3742°N, 135.2221°E)
Time: 05:13:26
(UTC+00:00)

Cosmos 1371 Rocket - Pass Details

Date: 19 May 2025
Orbit: 750 x 786 km, 74.0° (Epoch: 19 June)

Event Time Altitude Azimuth Distance (km) Brightness Sun altitude
Rises 15:56:53 0° 334° (NNW) 3,287 8.0 -24.2°
Reaches altitude 10° 15:59:21 10° 329° (NNW) 2,354 7.0 -24.1°
Maximum altitude 16:04:29 48° 256° (WSW) 1,021 4.4 -23.8°
Enters shadow 16:04:34 48° 253° (WSW) 1,022 4.3 -23.8°
